Weather History for Livingston, MT

Change the Weather History Date:

Monday, January 28, 2013

  Actual Average Record
Temperature  
Mean Temperature 24 °F 27 °F  
Max Temperature 30 °F 37 °F 56 °F (1988)
Min Temperature 19 °F 18 °F -26 °F (1951)
Degree Days  
Heating Degree Days 40 38  
Month to date heating degree days 1068  
Since 1 July heating degree days 4233  
Moisture  
Dew Point 13 °F    
Average Humidity 62    
Maximum Humidity 75    
Minimum Humidity 45    
Precipitation  
Precipitation 0.00 in 0.01 in 0.10 in (1950)
Month to date precipitation 0.44  
Year to date precipitation 0.44  
Sea Level Pressure  
Sea Level Pressure 29.87 in    
Wind  
Wind Speed 11 mph (WSW)    
Max Wind Speed 24 mph    
Max Gust Speed 37 mph    
Visibility 10 miles    
Events      
T = Trace of Precipitation, MM = Missing Value Source: NWS Daily Summary

Daily Weather History Graph

Daily Weather History Graph

Search for Another Location

Airport:

Trip Planner

Search our weather history database for the weather conditions in past years. The results will help you decide how hot, cold, wet, or windy it might be!

Date:

Astronomy

Jan. 28, 2013 Rise Set
Actual Time 7:47 AM MST 5:22 PM MST
Civil Twilight 7:15 AM MST 5:54 PM MST
Nautical Twilight 6:39 AM MST 6:30 PM MST
Astronomical Twilight 6:04 AM MST 7:05 PM MST
Moon 7:29 PM MST (1/28) 8:07 AM MST (1/28)
Length of Visible Light 10h 39m
Length of Day
9h 35m
Full, 97% of the Moon is Illuminated
Jan 28
Full
Feb 3
Last Quarter
Feb 10
New
Feb 17
First Quarter
Feb 25
Full

Hourly Weather History & Observations

Time (MST) Temp. Windchill Dew Point Humidity Pressure Visibility Wind Dir Wind Speed Gust Speed Precip Events Conditions
12:53 AM 25.0 °F 19.3 °F 18.0 °F 75% 29.90 in 10.0 mi WNW 4.6 mph - N/A   Overcast
1:53 AM 23.0 °F 15.8 °F 16.0 °F 74% 29.91 in 10.0 mi WSW 5.8 mph - N/A   Overcast
2:53 AM 25.0 °F 14.8 °F 18.0 °F 75% 29.90 in 10.0 mi WSW 10.4 mph - N/A   Overcast
3:53 AM 24.1 °F 12.5 °F 16.0 °F 71% 29.90 in 10.0 mi WSW 12.7 mph - N/A   Mostly Cloudy
4:53 AM 21.9 °F 11.7 °F 15.1 °F 75% 29.92 in 10.0 mi WSW 9.2 mph - N/A   Mostly Cloudy
5:53 AM 19.9 °F 8.6 °F 12.9 °F 74% 29.92 in 10.0 mi WSW 10.4 mph - N/A   Mostly Cloudy
6:53 AM 21.0 °F 9.9 °F 14.0 °F 74% 29.93 in 10.0 mi WSW 10.4 mph - N/A   Scattered Clouds
7:53 AM 21.0 °F 8.6 °F 12.9 °F 71% 29.94 in 10.0 mi WSW 12.7 mph - N/A   Scattered Clouds
8:53 AM 21.0 °F 8.1 °F 14.0 °F 74% 29.94 in 10.0 mi WSW 13.8 mph - N/A   Clear
9:53 AM 23.0 °F 11.1 °F 15.1 °F 72% 29.93 in 10.0 mi WSW 12.7 mph - N/A   Clear
10:53 AM 28.0 °F 15.7 °F 18.0 °F 66% 29.91 in 10.0 mi WSW 17.3 mph - N/A   Clear
11:53 AM 30.0 °F 20.5 °F 16.0 °F 56% 29.89 in 10.0 mi West 11.5 mph - N/A   Partly Cloudy
12:53 PM 30.9 °F 20.2 °F 12.0 °F 46% 29.86 in 10.0 mi WSW 15.0 mph 21.9 mph N/A   Partly Cloudy
1:53 PM 27.0 °F 14.3 °F 10.9 °F 51% 29.86 in 10.0 mi WSW 17.3 mph - N/A   Partly Cloudy
2:53 PM 28.9 °F 19.8 °F 12.9 °F 51% 29.84 in 10.0 mi WSW 10.4 mph - N/A   Clear
3:53 PM 28.9 °F 16.9 °F 10.0 °F 45% 29.84 in 10.0 mi West 17.3 mph - N/A   Clear
4:53 PM 24.1 °F 17.0 °F 10.9 °F 57% 29.87 in 10.0 mi WSW 5.8 mph - N/A   Scattered Clouds
5:53 PM 24.1 °F 16.0 °F 10.0 °F 55% 29.87 in 10.0 mi SW 6.9 mph - N/A   Overcast
6:53 PM 27.0 °F 13.2 °F 9.0 °F 47% 29.83 in 10.0 mi SW 20.7 mph 27.6 mph N/A   Clear
7:53 PM 25.0 °F 11.7 °F 9.0 °F 51% 29.83 in 10.0 mi SW 17.3 mph 28.8 mph N/A   Clear
8:53 PM 24.1 °F 8.3 °F 10.0 °F 55% 29.83 in 10.0 mi SSW 24.2 mph 34.5 mph N/A   Mostly Cloudy
9:53 PM 25.0 °F 10.2 °F 10.0 °F 53% 29.81 in 10.0 mi SSW 21.9 mph 32.2 mph N/A   Overcast
10:53 PM 25.0 °F 9.9 °F 10.0 °F 53% 29.78 in 10.0 mi SW 23.0 mph 34.5 mph N/A   Overcast
11:53 PM 25.0 °F 10.9 °F 10.9 °F 55% 29.77 in 10.0 mi SW 19.6 mph 36.8 mph N/A   Overcast